| time (UTC) | temp C | wind direction | speed KPH | gust KPH | rain 1hr cm | rain 24hr cm | rain mn cm | humidity % | barometer mb |
| 20260906212703 | 32 | 131 | 1.6 | 6.4 | 0.00 | 0.00 | 0.00 | 34 | 1018.8 |
| 20260906211803 | 32 | 132 | 3.2 | 8.0 | 0.00 | 0.00 | 0.00 | 35 | 1018.8 |
| 20260906210903 | 32 | 128 | 1.6 | 8.0 | 0.00 | 0.00 | 0.00 | 36 | 1019.0 |
| 20260906210003 | 32 | 94 | 3.2 | 12.9 | 0.00 | 0.00 | 0.00 | 36 | 1019.1 |
| 20260906205403 | 32 | 96 | 1.6 | 12.9 | 0.00 | 0.00 | 0.00 | 38 | 1019.2 |
| 20260906204503 | 32 | 113 | 1.6 | 6.4 | 0.00 | 0.00 | 0.00 | 36 | 1019.3 |
| 20260906203603 | 32 | 130 | 3.2 | 8.0 | 0.00 | 0.00 | 0.00 | 36 | 1019.4 |
| 20260906202916 | 32 | 176 | 1.6 | 6.4 | 0.00 | 0.00 | 0.00 | 37 | 1019.5 |
| 20260906201803 | 32 | 91 | 1.6 | 8.0 | 0.00 | 0.00 | 0.00 | 36 | 1019.7 |
| 20260906200903 | 32 | 122 | 1.6 | 9.7 | 0.00 | 0.00 | 0.00 | 37 | 1019.7 |
| 20260906200003 | 32 | 131 | 1.6 | 11.3 | 0.00 | 0.00 | 0.00 | 36 | 1019.9 |
| 20260906195403 | 32 | 125 | 1.6 | 6.4 | 0.00 | 0.00 | 0.00 | 37 | 1019.8 |
| 20260906194503 | 32 | 112 | 1.6 | 6.4 | 0.00 | 0.00 | 0.00 | 36 | 1019.9 |
| 20260906193603 | 32 | 106 | 3.2 | 9.7 | 0.00 | 0.00 | 0.00 | 35 | 1020.1 |
| 20260906192703 | 32 | 132 | 1.6 | 6.4 | 0.00 | 0.00 | 0.00 | 38 | 1020.1 |
| 20260906191803 | 32 | 127 | 1.6 | 6.4 | 0.00 | 0.00 | 0.00 | 36 | 1020.1 |
| 20260906190903 | 32 | 114 | 1.6 | 6.4 | 0.00 | 0.00 | 0.00 | 38 | 1020.4 |
| 20260906190003 | 32 | 99 | 1.6 | 6.4 | 0.00 | 0.00 | 0.00 | 38 | 1020.3 |
| 20260906185403 | 32 | 96 | 1.6 | 6.4 | 0.00 | 0.00 | 0.00 | 37 | 1020.5 |
| 20260906184503 | 32 | 113 | 1.6 | 8.0 | 0.00 | 0.00 | 0.00 | 36 | 1020.6 |
| 20260906183603 | 31 | 98 | 1.6 | 6.4 | 0.00 | 0.00 | 0.00 | 36 | 1020.8 |
| 20260906182703 | 31 | 98 | 1.6 | 6.4 | 0.00 | 0.00 | 0.00 | 36 | 1021.0 |
| 20260906181803 | 32 | 254 | 0.0 | 3.2 | 0.00 | 0.00 | 0.00 | 36 | 1021.2 |
| 20260906180903 | 32 | 126 | 0.0 | 4.8 | 0.00 | 0.00 | 0.00 | 36 | 1021.4 |
| 20260906180003 | 31 | 123 | 1.6 | 4.8 | 0.00 | 0.00 | 0.00 | 36 | 1021.6 |
| 20260906175617 | 31 | 117 | 1.6 | 8.0 | 0.00 | 0.00 | 0.00 | 38 | 1021.7 |
| 20260906174503 | 31 | 158 | 1.6 | 3.2 | 0.00 | 0.00 | 0.00 | 36 | 1021.9 |
| 20260906173603 | 31 | 154 | 1.6 | 3.2 | 0.00 | 0.00 | 0.00 | 37 | 1021.9 |
| 20260906172703 | 30 | 95 | 0.0 | 3.2 | 0.00 | 0.00 | 0.00 | 39 | 1022.0 |
| 20260906172019 | 30 | 210 | 0.0 | 1.6 | 0.00 | 0.00 | 0.00 | 40 | 1022.1 |
| 20260906170903 | 30 | 245 | 0.0 | 3.2 | 0.00 | 0.00 | 0.00 | 39 | 1022.1 |
| 20260906170217 | 30 | 173 | 0.0 | 3.2 | 0.00 | 0.00 | 0.00 | 40 | 1022.2 |
| 20260906165403 | 30 | 122 | 0.0 | 4.8 | 0.00 | 0.00 | 0.00 | 40 | 1022.3 |
| 20260906164503 | 30 | 107 | 1.6 | 6.4 | 0.00 | 0.00 | 0.00 | 36 | 1022.2 |
| 20260906163603 | 30 | 123 | 0.0 | 4.8 | 0.00 | 0.00 | 0.00 | 40 | 1022.3 |
| 20260906162703 | 30 | 169 | 0.0 | 3.2 | 0.00 | 0.00 | 0.00 | 41 | 1022.4 |
| 20260906161803 | 30 | 106 | 1.6 | 6.4 | 0.00 | 0.00 | 0.00 | 37 | 1022.2 |
| 20260906161117 | 30 | 113 | 0.0 | 9.7 | 0.00 | 0.00 | 0.00 | 40 | 1022.2 |
| 20260906160003 | 30 | 104 | 0.0 | 4.8 | 0.00 | 0.00 | 0.00 | 37 | 1022.3 |
| 20260906155403 | 30 | 101 | 0.0 | 3.2 | 0.00 | 0.00 | 0.00 | 39 | 1022.3 |
| 20260906154503 | 29 | 107 | 0.0 | 3.2 | 0.00 | 0.00 | 0.00 | 41 | 1022.3 |
| 20260906153603 | 28 | 106 | 0.0 | 3.2 | 0.00 | 0.00 | 0.00 | 42 | 1022.2 |
| 20260906152703 | 28 | 100 | 0.0 | 4.8 | 0.00 | 0.00 | 0.00 | 42 | 1022.2 |
| 20260906151803 | 27 | 0 | 0.0 | 0.0 | 0.00 | 0.00 | 0.00 | 45 | 1022.2 |
| 20260906150903 | 27 | 0 | 0.0 | 0.0 | 0.00 | 0.00 | 0.00 | 45 | 1022.1 |
| 20260906150003 | 25 | 0 | 0.0 | 0.0 | 0.00 | 0.00 | 0.00 | 48 | 1022.2 |
| 20260906145616 | 25 | 0 | 0.0 | 0.0 | 0.00 | 0.00 | 0.00 | 50 | 1022.1 |
| 20260906144503 | 23 | 0 | 0.0 | 0.0 | 0.00 | 0.00 | 0.00 | 51 | 1022.0 |
| 20260906143603 | 22 | 0 | 0.0 | 0.0 | 0.00 | 0.00 | 0.00 | 56 | 1022.1 |
| 20260906142703 | 21 | 0 | 0.0 | 0.0 | 0.00 | 0.00 | 0.00 | 55 | 1022.0 |
| 20260906142017 | 20 | 305 | 0.0 | 3.2 | 0.00 | 0.00 | 0.00 | 59 | 1022.0 |
| 20260906140903 | 19 | 339 | 1.6 | 3.2 | 0.00 | 0.00 | 0.00 | 60 | 1021.8 |
| 20260906140003 | 18 | 300 | 1.6 | 4.8 | 0.00 | 0.00 | 0.00 | 61 | 1021.8 |
| 20260906135403 | 18 | 294 | 1.6 | 4.8 | 0.00 | 0.00 | 0.00 | 62 | 1021.7 |
| 20260906134507 | 18 | 290 | 1.6 | 4.8 | 0.00 | 0.00 | 0.00 | 65 | 1021.8 |
| 20260906133603 | 17 | 291 | 1.6 | 4.8 | 0.00 | 0.00 | 0.00 | 68 | 1021.7 |
| 20260906132703 | 17 | 296 | 1.6 | 4.8 | 0.00 | 0.00 | 0.00 | 71 | 1021.6 |
| 20260906132017 | 17 | 299 | 1.6 | 4.8 | 0.00 | 0.00 | 0.00 | 73 | 1021.4 |
| 20260906130903 | 17 | 300 | 1.6 | 3.2 | 0.00 | 0.00 | 0.00 | 74 | 1021.5 |
| 20260906130003 | 17 | 300 | 0.0 | 3.2 | 0.00 | 0.00 | 0.00 | 74 | 1021.4 |
| 20260906125403 | 17 | 300 | 0.0 | 3.2 | 0.00 | 0.00 | 0.00 | 74 | 1021.4 |
| 20260906124503 | 17 | 292 | 3.2 | 6.4 | 0.00 | 0.00 | 0.00 | 73 | 1021.4 |
| 20260906123603 | 17 | 286 | 1.6 | 4.8 | 0.00 | 0.00 | 0.00 | 73 | 1021.5 |
| 20260906122917 | 17 | 296 | 1.6 | 4.8 | 0.00 | 0.00 | 0.00 | 72 | 1021.5 |
| 20260906121803 | 17 | 303 | 1.6 | 4.8 | 0.00 | 0.00 | 0.00 | 72 | 1021.4 |
| 20260906120903 | 17 | 317 | 0.0 | 4.8 | 0.00 | 0.00 | 0.00 | 72 | 1021.3 |
| 20260906120003 | 17 | 0 | 0.0 | 0.0 | 0.00 | 0.00 | 0.00 | 72 | 1021.3 |
| 20260906115403 | 17 | 0 | 0.0 | 0.0 | 0.00 | 0.00 | 0.00 | 72 | 1021.2 |
| 20260906114503 | 17 | 0 | 0.0 | 0.0 | 0.00 | 0.00 | 0.00 | 72 | 1021.1 |
| 20260906113818 | 17 | 0 | 0.0 | 0.0 | 0.00 | 0.00 | 0.00 | 73 | 1021.1 |
| 20260906112703 | 17 | 0 | 0.0 | 0.0 | 0.00 | 0.00 | 0.00 | 72 | 1021.2 |
| 20260906112016 | 17 | 0 | 0.0 | 0.0 | 0.00 | 0.00 | 0.00 | 72 | 1021.2 |
| 20260906110903 | 17 | 0 | 0.0 | 0.0 | 0.00 | 0.00 | 0.00 | 72 | 1021.0 |
| 20260906110003 | 17 | 0 | 0.0 | 0.0 | 0.00 | 0.00 | 0.00 | 72 | 1021.0 |
| 20260906105403 | 18 | 0 | 0.0 | 0.0 | 0.00 | 0.00 | 0.00 | 72 | 1020.9 |
| 20260906104503 | 18 | 0 | 0.0 | 0.0 | 0.00 | 0.00 | 0.00 | 72 | 1021.0 |
| 20260906103603 | 18 | 317 | 0.0 | 3.2 | 0.00 | 0.00 | 0.00 | 71 | 1021.0 |
| 20260906102703 | 18 | 317 | 0.0 | 1.6 | 0.00 | 0.00 | 0.00 | 71 | 1021.0 |
| 20260906102016 | 18 | 317 | 0.0 | 3.2 | 0.00 | 0.00 | 0.00 | 70 | 1020.9 |
| 20260906100903 | 18 | 317 | 1.6 | 3.2 | 0.00 | 0.00 | 0.00 | 70 | 1020.9 |
| 20260906100219 | 18 | 0 | 0.0 | 0.0 | 0.00 | 0.00 | 0.00 | 70 | 1020.9 |
| 20260906095618 | 18 | 0 | 0.0 | 0.0 | 0.00 | 0.00 | 0.00 | 70 | 1021.1 |
| 20260906094503 | 18 | 0 | 0.0 | 0.0 | 0.00 | 0.00 | 0.00 | 69 | 1021.2 |
| 20260906093603 | 18 | 0 | 0.0 | 0.0 | 0.00 | 0.00 | 0.00 | 69 | 1021.3 |
| 20260906092703 | 18 | 61 | 0.0 | 1.6 | 0.00 | 0.00 | 0.00 | 69 | 1021.3 |
| 20260906091803 | 18 | 61 | 0.0 | 3.2 | 0.00 | 0.00 | 0.00 | 69 | 1021.3 |
| 20260906090903 | 18 | 63 | 0.0 | 1.6 | 0.00 | 0.00 | 0.00 | 69 | 1021.1 |
| 20260906090003 | 18 | 0 | 0.0 | 1.6 | 0.00 | 0.00 | 0.00 | 69 | 1021.2 |
| 20260906085403 | 18 | 311 | 0.0 | 1.6 | 0.00 | 0.00 | 0.00 | 68 | 1021.1 |
| 20260906084503 | 19 | 311 | 0.0 | 4.8 | 0.00 | 0.00 | 0.00 | 68 | 1021.1 |
| 20260906083603 | 19 | 311 | 1.6 | 4.8 | 0.00 | 0.00 | 0.00 | 68 | 1021.0 |
| 20260906082703 | 19 | 311 | 1.6 | 3.2 | 0.00 | 0.00 | 0.00 | 67 | 1021.1 |
| 20260906081803 | 19 | 311 | 0.0 | 3.2 | 0.00 | 0.00 | 0.00 | 67 | 1021.0 |
| 20260906080903 | 20 | 311 | 1.6 | 4.8 | 0.00 | 0.00 | 0.00 | 66 | 1020.9 |
| 20260906080003 | 20 | 297 | 1.6 | 4.8 | 0.00 | 0.00 | 0.00 | 66 | 1020.9 |
| 20260906075617 | 20 | 289 | 1.6 | 4.8 | 0.00 | 0.00 | 0.00 | 66 | 1020.9 |
| 20260906074503 | 20 | 279 | 1.6 | 6.4 | 0.00 | 0.00 | 0.00 | 66 | 1021.1 |
| 20260906073603 | 20 | 289 | 1.6 | 3.2 | 0.00 | 0.00 | 0.00 | 66 | 1021.1 |
| 20260906072916 | 20 | 289 | 1.6 | 6.4 | 0.00 | 0.00 | 0.00 | 67 | 1021.0 |
| 20260906071803 | 20 | 289 | 3.2 | 6.4 | 0.00 | 0.00 | 0.00 | 67 | 1021.1 |
| 20260906070903 | 19 | 295 | 3.2 | 6.4 | 0.00 | 0.00 | 0.00 | 66 | 1021.2 |
| 20260906070003 | 19 | 291 | 3.2 | 8.0 | 0.00 | 0.00 | 0.00 | 66 | 1021.1 |
| 20260906065617 | 19 | 289 | 1.6 | 6.4 | 0.00 | 0.00 | 0.00 | 66 | 1021.1 |
| 20260906064716 | 19 | 0 | 0.0 | 0.0 | 0.00 | 0.00 | 0.00 | 66 | 1021.1 |
| 20260906063603 | 19 | 58 | 0.0 | 1.6 | 0.00 | 0.00 | 0.00 | 66 | 1021.2 |
| 20260906062703 | 20 | 59 | 0.0 | 3.2 | 0.00 | 0.00 | 0.00 | 65 | 1021.2 |
| 20260906061803 | 20 | 75 | 0.0 | 3.2 | 0.00 | 0.00 | 0.00 | 64 | 1021.2 |
| 20260906060903 | 20 | 76 | 1.6 | 4.8 | 0.00 | 0.00 | 0.00 | 64 | 1021.2 |
| 20260906060217 | 20 | 75 | 1.6 | 4.8 | 0.00 | 0.00 | 0.00 | 63 | 1021.1 |
| 20260906055403 | 20 | 86 | 1.6 | 3.2 | 0.00 | 0.00 | 0.00 | 63 | 1021.1 |
| 20260906054503 | 21 | 0 | 0.0 | 0.0 | 0.00 | 0.00 | 0.00 | 62 | 1021.1 |
| 20260906053603 | 21 | 67 | 1.6 | 4.8 | 0.00 | 0.00 | 0.00 | 62 | 1021.1 |
| 20260906052703 | 21 | 66 | 1.6 | 4.8 | 0.00 | 0.00 | 0.00 | 62 | 1021.1 |
| 20260906051803 | 21 | 77 | 1.6 | 4.8 | 0.00 | 0.00 | 0.00 | 61 | 1020.9 |
| 20260906050903 | 21 | 56 | 0.0 | 4.8 | 0.00 | 0.00 | 0.00 | 60 | 1021.1 |
| 20260906050003 | 22 | 81 | 1.6 | 3.2 | 0.00 | 0.00 | 0.00 | 60 | 1021.0 |
| 20260906045403 | 22 | 103 | 1.6 | 3.2 | 0.00 | 0.00 | 0.00 | 60 | 1021.0 |
| 20260906044503 | 22 | 103 | 0.0 | 3.2 | 0.00 | 0.00 | 0.00 | 60 | 1021.1 |
| 20260906043603 | 22 | 0 | 0.0 | 0.0 | 0.00 | 0.00 | 0.00 | 59 | 1021.2 |
| 20260906042703 | 22 | 0 | 0.0 | 0.0 | 0.00 | 0.00 | 0.00 | 58 | 1021.2 |
| 20260906041803 | 22 | 103 | 0.0 | 1.6 | 0.00 | 0.00 | 0.00 | 58 | 1021.2 |
| 20260906040903 | 23 | 0 | 0.0 | 0.0 | 0.00 | 0.00 | 0.00 | 57 | 1021.2 |
| 20260906040003 | 23 | 103 | 0.0 | 1.6 | 0.00 | 0.00 | 0.00 | 56 | 1020.9 |
| 20260906035403 | 23 | 103 | 0.0 | 1.6 | 0.00 | 0.00 | 0.00 | 56 | 1021.2 |
| 20260906034503 | 23 | 117 | 0.0 | 3.2 | 0.00 | 0.00 | 0.00 | 55 | 1021.2 |
| 20260906033603 | 23 | 70 | 1.6 | 4.8 | 0.00 | 0.00 | 0.00 | 55 | 1021.1 |
| 20260906032703 | 23 | 74 | 1.6 | 6.4 | 0.00 | 0.00 | 0.00 | 55 | 1021.3 |
| 20260906031803 | 24 | 76 | 0.0 | 3.2 | 0.00 | 0.00 | 0.00 | 55 | 1021.1 |
| 20260906030903 | 24 | 76 | 0.0 | 3.2 | 0.00 | 0.00 | 0.00 | 54 | 1020.8 |
| 20260906030216 | 24 | 89 | 0.0 | 3.2 | 0.00 | 0.00 | 0.00 | 53 | 1020.5 |
| 20260906025616 | 25 | 164 | 1.6 | 4.8 | 0.00 | 0.00 | 0.00 | 53 | 1020.5 |
| 20260906024719 | 25 | 127 | 1.6 | 4.8 | 0.00 | 0.00 | 0.00 | 52 | 1020.1 |
| 20260906023818 | 25 | 83 | 1.6 | 6.4 | 0.00 | 0.00 | 0.00 | 52 | 1020.1 |
| 20260906022703 | 26 | 86 | 1.6 | 4.8 | 0.00 | 0.00 | 0.00 | 50 | 1019.9 |
| 20260906021803 | 26 | 56 | 0.0 | 4.8 | 0.00 | 0.00 | 0.00 | 49 | 1019.9 |
| 20260906021116 | 27 | 61 | 1.6 | 6.4 | 0.00 | 0.00 | 0.00 | 48 | 1019.7 |
| 20260906020003 | 27 | 20 | 3.2 | 14.5 | 0.00 | 0.00 | 0.00 | 42 | 1019.7 |
| 20260906015403 | 27 | 327 | 3.2 | 14.5 | 0.00 | 0.00 | 0.00 | 34 | 1019.5 |
| 20260906014503 | 27 | 317 | 1.6 | 6.4 | 0.00 | 0.00 | 0.00 | 33 | 1019.1 |
| 20260906013603 | 27 | 297 | 3.2 | 8.0 | 0.00 | 0.00 | 0.00 | 33 | 1019.0 |
| 20260906012703 | 28 | 295 | 3.2 | 9.7 | 0.00 | 0.00 | 0.00 | 32 | 1019.0 |
| 20260906011803 | 28 | 297 | 3.2 | 9.7 | 0.00 | 0.00 | 0.00 | 31 | 1018.8 |
| 20260906010903 | 28 | 298 | 3.2 | 6.4 | 0.00 | 0.00 | 0.00 | 32 | 1018.9 |
| 20260906010003 | 29 | 298 | 3.2 | 8.0 | 0.00 | 0.00 | 0.00 | 31 | 1019.1 |
| 20260906005403 | 29 | 294 | 3.2 | 9.7 | 0.00 | 0.00 | 0.00 | 31 | 1019.1 |
| 20260906004503 | 29 | 293 | 3.2 | 9.7 | 0.00 | 0.00 | 0.00 | 31 | 1019.2 |
| 20260906003603 | 30 | 295 | 4.8 | 12.9 | 0.00 | 0.00 | 0.00 | 30 | 1019.2 |
| 20260906002703 | 30 | 296 | 3.2 | 6.4 | 0.00 | 0.00 | 0.00 | 30 | 1019.3 |
| 20260906001803 | 30 | 292 | 1.6 | 6.4 | 0.00 | 0.00 | 0.00 | 30 | 1019.2 |
| 20260906000903 | 30 | 280 | 1.6 | 6.4 | 0.00 | 0.00 | 0.00 | 31 | 1019.1 |
| 20260906000003 | 30 | 297 | 1.6 | 4.8 | 0.00 | 0.00 | 0.00 | 32 | 1019.1 |
| 20260905235403 | 29 | 301 | 1.6 | 6.4 | 0.00 | 0.00 | 0.00 | 32 | 1019.1 |
| 20260905234503 | 29 | 292 | 1.6 | 4.8 | 0.00 | 0.00 | 0.00 | 33 | 1019.0 |
| 20260905233603 | 28 | 298 | 1.6 | 4.8 | 0.00 | 0.00 | 0.00 | 32 | 1018.9 |
| 20260905232703 | 29 | 297 | 1.6 | 3.2 | 0.00 | 0.00 | 0.00 | 31 | 1019.0 |
| 20260905231803 | 29 | 297 | 1.6 | 6.4 | 0.00 | 0.00 | 0.00 | 31 | 1018.9 |
| 20260905231119 | 29 | 301 | 3.2 | 8.0 | 0.00 | 0.00 | 0.00 | 31 | 1019.1 |
| 20260905230003 | 29 | 296 | 3.2 | 14.5 | 0.00 | 0.00 | 0.00 | 30 | 1019.1 |
| 20260905225403 | 29 | 294 | 4.8 | 14.5 | 0.00 | 0.00 | 0.00 | 30 | 1019.1 |
| 20260905224717 | 28 | 294 | 4.8 | 12.9 | 0.00 | 0.00 | 0.00 | 30 | 1019.1 |
| 20260905223603 | 28 | 298 | 3.2 | 12.9 | 0.00 | 0.00 | 0.00 | 32 | 1019.3 |
| 20260905222703 | 28 | 294 | 3.2 | 11.3 | 0.00 | 0.00 | 0.00 | 36 | 1019.2 |
| 20260905221803 | 28 | 296 | 4.8 | 14.5 | 0.00 | 0.00 | 0.00 | 31 | 1019.3 |
| 20260905221119 | 28 | 300 | 3.2 | 14.5 | 0.00 | 0.00 | 0.00 | 32 | 1019.3 |
| 20260905220003 | 28 | 297 | 4.8 | 12.9 | 0.00 | 0.00 | 0.00 | 34 | 1019.3 |
| 20260905215403 | 29 | 291 | 4.8 | 12.9 | 0.00 | 0.00 | 0.00 | 35 | 1019.4 |
| 20260905214503 | 30 | 291 | 8.0 | 17.7 | 0.00 | 0.00 | 0.00 | 32 | 1019.4 |
| 20260905213603 | 29 | 291 | 3.2 | 17.7 | 0.00 | 0.00 | 0.00 | 31 | 1019.4 |